{"data":{"norad_id":63321,"intl_designator":"2025-057Q","name":"STARLINK-33650","alt_names":[],"object_type":"PAYLOAD","status":"ACTIVE","operator":null,"country":"US","launch_date":"2025-03-18","launch_site_code":"AFETR","launch_vehicle":null,"mission":null,"orbit_class":"UNKNOWN","rcs_meters":null,"size_class":null,"mass_kg":null,"dimensions":null,"purposes":["comms"],"wikipedia_slug":null,"has_3d_model":false,"image_url":null,"decayed_at":null,"tle_current":{"epoch":"2026-09-20T13:33:39.043872Z","epoch_age_seconds":153279,"freshness":"FRESH","line1":"1 63321U 25057Q   26263.56503523  .00012422  00000+0  45995-3 0  9997","line2":"2 63321  43.0032  10.0742 0001421 273.0527  87.0162 15.27594968 85549","mean_motion":15.27594968,"eccentricity":0.0001421,"inclination_deg":43.0032,"raan_deg":10.0742,"arg_perigee_deg":273.0527,"mean_anomaly_deg":87.0162,"bstar":0.00045995,"rev_number":8554,"period_min":94.26582504951,"perigee_km":482.02930865347,"apogee_km":483.97924500435,"semimajor_km":6861.1412768289,"source":"CELESTRAK","updated_at":"2026-09-21T09:00:34.969919Z"}}}